Location: Cahoon Acres
(40.8736°N, 111.8994°W)
Time: 11:34:38
(UTC+00:00)

SR - Pass Details

Date: 09 June 2020
Orbit: 583 x 872 km, 66.7° (Epoch: 14 July)

Event Time Altitude Azimuth Distance (km) Brightness Sun altitude
Rises 06:36:30 0° 310° (NW) 2,827 ? -25.1°
Reaches altitude 10° 06:39:45 10° 283° (WNW) 1,906 ? -25.2°
Enters shadow 06:41:14 13° 263° (W) 1,704 ? -25.3°
Maximum altitude 06:41:50 13° 254° (WSW) 1,684 - -25.3°
Drops below altitude 10° 06:43:55 10° 224° (SW) 1,902 - -25.4°
Sets 06:47:10 0° 198° (SSW) 2,816 - -25.5°
